CXA9885 ZSPD-ZSAM

Flight info

Callsign CXA9885
Flight time N/A
Altitude 25600
Route HSN82D HSN W13 BEGMO W117 DST B221 LJG A470 ENVEN ENVEN8X
Aircraft A333/H-SDE3GHIJ2J3J5M1RVWXY/LB2D1

Departure

Time 2026-05-05 13:35
Airport Shanghai Pudong International Airport (ZSPD)

Arrival

Time N/A
Airport Xiamen Gaoqi International Airport (ZSAM)
Time Latitude Longitude Altitude Speed Heading
2026-05-05 12:57 31.14044 121.81237 27 ft 0 kts 252°
2026-05-05 13:16 31.14045 121.81245 27 ft 2 kts 252°
2026-05-05 13:17 31.14050 121.81261 27 ft 2 kts 252°
2026-05-05 13:17 31.14055 121.81278 27 ft 2 kts 252°
2026-05-05 13:17 31.14059 121.81295 27 ft 2 kts 252°
2026-05-05 13:17 31.14063 121.81312 27 ft 2 kts 281°
2026-05-05 13:18 31.14057 121.81328 27 ft 2 kts 314°
2026-05-05 13:18 31.14046 121.81337 27 ft 0 kts 341°
2026-05-05 13:18 31.14042 121.81339 26 ft 0 kts 343°
2026-05-05 13:23 31.14044 121.81338 26 ft 1 kts 343°
2026-05-05 13:24 31.14064 121.81330 27 ft 4 kts 340°
2026-05-05 13:24 31.14106 121.81312 27 ft 7 kts 339°
2026-05-05 13:24 31.14167 121.81289 28 ft 10 kts 345°
2026-05-05 13:24 31.14183 121.81284 28 ft 0 kts 346°
2026-05-05 13:25 31.14184 121.81284 28 ft 1 kts 346°
2026-05-05 13:25 31.14210 121.81274 28 ft 6 kts 342°
2026-05-05 13:25 31.14268 121.81252 28 ft 11 kts 339°
2026-05-05 13:26 31.14360 121.81219 28 ft 11 kts 341°
2026-05-05 13:26 31.14365 121.81216 28 ft 0 kts 341°
2026-05-05 13:27 31.14384 121.81210 28 ft 6 kts 341°
2026-05-05 13:27 31.14449 121.81187 28 ft 12 kts 345°
2026-05-05 13:27 31.14523 121.81177 28 ft 10 kts 26°
2026-05-05 13:28 31.14563 121.81265 29 ft 13 kts 71°
2026-05-05 13:28 31.14597 121.81377 28 ft 12 kts 70°
2026-05-05 13:28 31.14675 121.81416 28 ft 16 kts 346°
2026-05-05 13:28 31.14796 121.81371 27 ft 20 kts 341°
2026-05-05 13:29 31.14944 121.81316 27 ft 22 kts 342°
2026-05-05 13:29 31.15103 121.81258 26 ft 23 kts 340°
2026-05-05 13:29 31.15261 121.81198 25 ft 23 kts 343°
2026-05-05 13:29 31.15419 121.81137 25 ft 23 kts 342°
2026-05-05 13:30 31.15575 121.81078 25 ft 24 kts 342°
2026-05-05 13:30 31.15742 121.81016 26 ft 25 kts 342°
2026-05-05 13:30 31.15841 121.81036 25 ft 6 kts 64°
2026-05-05 13:30 31.15842 121.81037 25 ft 0 kts 64°
2026-05-05 13:32 31.15857 121.81078 24 ft 10 kts 69°
2026-05-05 13:33 31.15878 121.81186 22 ft 14 kts 109°
2026-05-05 13:33 31.15788 121.81220 23 ft 13 kts 165°
2026-05-05 13:33 31.15774 121.81224 23 ft 0 kts 162°
2026-05-05 13:34 31.15733 121.81240 23 ft 27 kts 162°
2026-05-05 13:34 31.15326 121.81395 24 ft 94 kts 163°
2026-05-05 13:34 31.14499 121.81702 42 ft 149 kts 161°
2026-05-05 13:35 31.13479 121.82056 593 ft 152 kts 166°
2026-05-05 13:35 31.12494 121.82345 1124 ft 145 kts 166°
2026-05-05 13:35 31.11617 121.82885 1567 ft 142 kts 160°
2026-05-05 13:35 31.10676 121.83320 1875 ft 151 kts 156°
2026-05-05 13:36 31.09698 121.83933 2139 ft 166 kts 152°
2026-05-05 13:36 31.08675 121.84673 2390 ft 181 kts 149°
2026-05-05 13:36 31.07553 121.85541 2614 ft 205 kts 148°
2026-05-05 13:36 31.06316 121.86530 2976 ft 226 kts 146°
2026-05-05 13:37 31.04922 121.87662 3032 ft 262 kts 146°
2026-05-05 13:37 31.03433 121.88879 3003 ft 265 kts 146°
2026-05-05 13:37 31.01887 121.90140 3742 ft 271 kts 146°
2026-05-05 13:37 31.00458 121.91490 4751 ft 266 kts 138°
2026-05-05 13:38 30.99060 121.92982 4930 ft 276 kts 138°
2026-05-05 13:38 30.97670 121.94459 4903 ft 268 kts 138°
2026-05-05 13:38 30.96278 121.95933 5027 ft 278 kts 138°
2026-05-05 13:38 30.94852 121.97444 5972 ft 275 kts 136°
2026-05-05 13:39 30.93740 121.99222 6785 ft 275 kts 112°
2026-05-05 13:39 30.93418 122.01382 7427 ft 280 kts 86°
2026-05-05 13:39 30.93944 122.03580 8128 ft 283 kts 66°
2026-05-05 13:39 30.94624 122.05711 8851 ft 287 kts 71°
2026-05-05 13:40 30.95263 122.07938 9594 ft 291 kts 71°
2026-05-05 13:40 30.95888 122.10172 10288 ft 296 kts 71°
2026-05-05 13:40 30.96542 122.12516 10629 ft 314 kts 71°
2026-05-05 13:40 30.97237 122.15018 10925 ft 334 kts 71°
2026-05-05 13:41 30.97970 122.17663 11234 ft 352 kts 71°
2026-05-05 13:41 30.98333 122.20519 11811 ft 361 kts 91°
2026-05-05 13:41 30.97792 122.23350 12449 ft 367 kts 112°
2026-05-05 13:41 30.96397 122.25839 13072 ft 371 kts 134°
2026-05-05 13:42 30.94325 122.27628 13635 ft 373 kts 155°
2026-05-05 13:42 30.91862 122.28468 14239 ft 372 kts 174°
2026-05-05 13:42 30.89307 122.29050 14905 ft 375 kts 166°
2026-05-05 13:42 30.86780 122.29910 15510 ft 379 kts 166°
2026-05-05 13:43 30.84208 122.30822 16127 ft 382 kts 165°
2026-05-05 13:43 30.81679 122.31736 16733 ft 385 kts 165°
2026-05-05 13:43 30.79106 122.32676 17308 ft 388 kts 165°
2026-05-05 13:43 30.76532 122.33617 17865 ft 390 kts 165°
2026-05-05 13:44 30.73908 122.34576 18431 ft 393 kts 166°
2026-05-05 13:44 30.71322 122.35522 19031 ft 395 kts 166°
2026-05-05 13:44 30.68695 122.36485 19614 ft 396 kts 166°
2026-05-05 13:44 30.66029 122.37460 20194 ft 398 kts 166°
2026-05-05 13:45 30.63365 122.38432 20684 ft 401 kts 166°
2026-05-05 13:45 30.60728 122.39396 21199 ft 402 kts 167°
2026-05-05 13:45 30.57998 122.40035 21653 ft 396 kts 181°
2026-05-05 13:45 30.55276 122.39915 22125 ft 395 kts 187°
2026-05-05 13:46 30.52513 122.39754 22661 ft 395 kts 188°
2026-05-05 13:46 30.49763 122.39593 23185 ft 395 kts 188°
2026-05-05 13:46 30.47022 122.39434 23587 ft 398 kts 188°
2026-05-05 13:46 30.44248 122.39275 24104 ft 397 kts 188°
2026-05-05 13:47 30.41502 122.39115 24607 ft 397 kts 189°
2026-05-05 13:47 30.38732 122.38953 25005 ft 399 kts 189°
2026-05-05 13:47 30.35956 122.38792 25460 ft 401 kts 189°
2026-05-05 13:47 30.33134 122.38629 25827 ft 404 kts 189°
2026-05-05 13:48 30.30338 122.38470 26249 ft 405 kts 189°
2026-05-05 13:48 30.27531 122.38308 26709 ft 405 kts 189°
2026-05-05 13:48 30.24705 122.38146 27267 ft 402 kts 190°
2026-05-05 13:48 30.21925 122.37989 27669 ft 394 kts 190°
2026-05-05 13:49 30.19228 122.37832 27564 ft 391 kts 191°
2026-05-05 13:49 30.16498 122.37674 27634 ft 390 kts 191°
2026-05-05 13:49 30.13769 122.37515 27654 ft 395 kts 191°
2026-05-05 13:49 30.11020 122.37357 27621 ft 396 kts 191°
2026-05-05 13:50 30.08256 122.37199 27638 ft 399 kts 191°
2026-05-05 13:50 30.05442 122.37032 27667 ft 410 kts 190°
2026-05-05 13:50 30.02553 122.36867 27635 ft 421 kts 190°
2026-05-05 13:50 29.99608 122.36698 27644 ft 430 kts 190°
2026-05-05 13:51 29.96558 122.36526 27648 ft 437 kts 190°
2026-05-05 13:51 29.93476 122.36376 27656 ft 445 kts 187°
2026-05-05 13:51 29.90353 122.36839 27627 ft 465 kts 175°
2026-05-05 13:51 29.87157 122.37686 27681 ft 467 kts 176°
2026-05-05 13:52 29.83968 122.38464 27674 ft 470 kts 176°
2026-05-05 13:52 29.80726 122.39233 27605 ft 468 kts 176°
2026-05-05 13:52 29.77559 122.39979 27615 ft 459 kts 176°
2026-05-05 13:52 29.74455 122.40704 27729 ft 455 kts 177°
2026-05-05 13:53 29.71321 122.41431 27634 ft 459 kts 177°
2026-05-05 13:53 29.68170 122.42165 27646 ft 457 kts 177°
2026-05-05 13:53 29.65057 122.42893 27655 ft 457 kts 177°
2026-05-05 13:53 29.61959 122.43613 27658 ft 456 kts 177°
2026-05-05 13:54 29.58845 122.44335 27665 ft 456 kts 177°
2026-05-05 13:54 29.55722 122.45061 27656 ft 456 kts 177°
2026-05-05 13:54 29.52578 122.45792 27641 ft 457 kts 177°
2026-05-05 13:54 29.49490 122.46509 27661 ft 457 kts 177°
2026-05-05 13:55 29.46362 122.47232 27648 ft 461 kts 177°
2026-05-05 13:55 29.43186 122.47968 27649 ft 461 kts 177°
2026-05-05 13:55 29.40050 122.48697 27648 ft 462 kts 177°
2026-05-05 13:55 29.36896 122.49425 27652 ft 460 kts 177°
2026-05-05 13:56 29.33755 122.50153 27651 ft 459 kts 177°
2026-05-05 13:56 29.30625 122.50877 27654 ft 460 kts 177°
2026-05-05 13:56 29.27504 122.51598 27657 ft 459 kts 177°
2026-05-05 13:56 29.24378 122.52319 27650 ft 459 kts 177°
2026-05-05 13:57 29.21259 122.52792 27630 ft 446 kts 187°
2026-05-05 13:57 29.18253 122.52310 27635 ft 429 kts 202°
2026-05-05 13:57 29.15576 122.50918 27660 ft 420 kts 214°
2026-05-05 13:57 29.13017 122.49285 27658 ft 422 kts 213°
2026-05-05 13:58 29.10412 122.47706 27645 ft 422 kts 212°
2026-05-05 13:58 29.07791 122.46146 27644 ft 421 kts 212°
2026-05-05 13:58 29.05181 122.44601 27654 ft 421 kts 212°
2026-05-05 13:58 29.02564 122.43059 27654 ft 420 kts 211°
2026-05-05 13:59 28.97361 122.39997 27633 ft 420 kts 212°
2026-05-05 13:59 28.94730 122.38450 27654 ft 420 kts 212°
2026-05-05 14:00 28.89491 122.35372 27657 ft 421 kts 212°
2026-05-05 14:00 28.87723 122.34335 27662 ft 423 kts 212°
2026-05-05 14:00 28.84223 122.32282 27647 ft 425 kts 212°
2026-05-05 14:00 28.81615 122.30753 27670 ft 425 kts 212°
2026-05-05 14:01 28.78971 122.29203 27678 ft 425 kts 212°
2026-05-05 14:01 28.76320 122.27651 27578 ft 427 kts 212°
2026-05-05 14:01 28.73725 122.26133 27639 ft 422 kts 212°
2026-05-05 14:01 28.71090 122.24591 27700 ft 423 kts 212°
2026-05-05 14:02 28.68442 122.23045 27672 ft 427 kts 212°
2026-05-05 14:02 28.65790 122.21494 27580 ft 426 kts 212°
2026-05-05 14:02 28.64365 122.20663 27627 ft 425 kts 211°
2026-05-05 14:02 28.63908 122.20396 28203 ft 424 kts 212°
2026-05-05 14:03 28.61583 122.19022 27797 ft 446 kts 207°
2026-05-05 14:03 28.58761 122.17386 27432 ft 465 kts 207°
2026-05-05 14:03 28.55858 122.15698 27826 ft 467 kts 207°
2026-05-05 14:03 28.52887 122.13969 27475 ft 484 kts 207°
2026-05-05 14:04 28.49860 122.12208 27634 ft 487 kts 207°
2026-05-05 14:04 28.46841 122.10452 27672 ft 493 kts 207°
2026-05-05 14:04 28.43744 122.08652 27646 ft 497 kts 207°
2026-05-05 14:04 28.40685 122.06889 27656 ft 495 kts 207°
2026-05-05 14:05 28.37612 122.05151 27196 ft 483 kts 207°
2026-05-05 14:05 28.34692 122.03409 27717 ft 471 kts 207°
2026-05-05 14:05 28.31748 122.01691 27618 ft 483 kts 207°
2026-05-05 14:05 28.28711 121.99928 27548 ft 487 kts 207°
2026-05-05 14:06 28.25677 121.98170 27641 ft 486 kts 207°
2026-05-05 14:06 28.22670 121.96429 27597 ft 485 kts 207°
2026-05-05 14:06 28.19634 121.94672 27587 ft 482 kts 207°
2026-05-05 14:06 28.17873 121.93655 27601 ft 482 kts 207°
2026-05-05 14:07 28.17429 121.93398 27603 ft 482 kts 207°
2026-05-05 14:07 28.15447 121.92252 27604 ft 482 kts 207°
2026-05-05 14:07 28.12450 121.90521 27600 ft 482 kts 207°
2026-05-05 14:07 28.09434 121.88781 27607 ft 482 kts 207°
2026-05-05 14:08 28.06428 121.87047 27600 ft 483 kts 207°
2026-05-05 14:08 28.03489 121.85252 27588 ft 482 kts 213°
2026-05-05 14:08 28.00944 121.82776 27574 ft 482 kts 229°
2026-05-05 14:08 27.99095 121.79664 27598 ft 482 kts 244°
2026-05-05 14:09 27.98032 121.76070 27593 ft 483 kts 259°
2026-05-05 14:09 27.97607 121.72289 27603 ft 482 kts 262°
2026-05-05 14:09 27.96952 121.68552 27610 ft 483 kts 258°
2026-05-05 14:09 27.96220 121.64878 27597 ft 483 kts 257°
2026-05-05 14:10 27.95471 121.61198 27595 ft 482 kts 257°
2026-05-05 14:10 27.94709 121.57478 27607 ft 482 kts 257°
2026-05-05 14:10 27.93954 121.53803 27598 ft 483 kts 257°
2026-05-05 14:10 27.93188 121.50082 27595 ft 482 kts 257°
2026-05-05 14:11 27.92423 121.46375 27606 ft 482 kts 257°
2026-05-05 14:11 27.91659 121.42676 27599 ft 483 kts 257°
2026-05-05 14:11 27.90896 121.38983 27594 ft 482 kts 257°
2026-05-05 14:11 27.90170 121.35481 27605 ft 482 kts 257°
2026-05-05 14:12 27.89577 121.32619 27598 ft 483 kts 257°
2026-05-05 14:12 27.87970 121.24888 27599 ft 483 kts 257°
2026-05-05 14:12 27.87203 121.21193 27605 ft 482 kts 257°
2026-05-05 14:13 27.86427 121.17452 27603 ft 483 kts 257°
2026-05-05 14:13 27.85675 121.13834 27594 ft 483 kts 257°
2026-05-05 14:13 27.84886 121.10047 27603 ft 482 kts 257°
2026-05-05 14:13 27.84164 121.06580 27598 ft 483 kts 257°
2026-05-05 14:14 27.83385 121.02852 27594 ft 483 kts 257°
2026-05-05 14:14 27.82696 120.99554 27601 ft 482 kts 257°
2026-05-05 14:14 27.81885 120.95682 27606 ft 483 kts 257°
2026-05-05 14:14 27.81131 120.92082 27593 ft 483 kts 257°
2026-05-05 14:15 27.80369 120.88454 27601 ft 482 kts 257°
2026-05-05 14:15 27.79591 120.84754 27608 ft 483 kts 257°
2026-05-05 14:15 27.78826 120.81117 27590 ft 483 kts 257°
2026-05-05 14:15 27.78069 120.77527 27600 ft 482 kts 257°
2026-05-05 14:16 27.77373 120.74229 27607 ft 483 kts 257°
2026-05-05 14:16 27.75629 120.66434 27592 ft 482 kts 250°
2026-05-05 14:16 27.74223 120.63337 27579 ft 482 kts 236°
2026-05-05 14:17 27.72167 120.60709 27594 ft 482 kts 222°
2026-05-05 14:17 27.69831 120.58873 27596 ft 483 kts 209°
2026-05-05 14:17 27.64256 120.55287 27599 ft 483 kts 212°
2026-05-05 14:18 27.61381 120.53262 27598 ft 483 kts 212°
2026-05-05 14:18 27.58564 120.51260 27609 ft 486 kts 212°
2026-05-05 14:18 27.55689 120.49212 27599 ft 487 kts 212°
2026-05-05 14:18 27.52795 120.47150 27593 ft 487 kts 212°
2026-05-05 14:19 27.49945 120.45119 27604 ft 487 kts 212°
2026-05-05 14:19 27.47090 120.43087 27603 ft 487 kts 212°
2026-05-05 14:19 27.44188 120.41022 27591 ft 487 kts 212°
2026-05-05 14:19 27.41314 120.38979 27600 ft 486 kts 212°
2026-05-05 14:20 27.38480 120.36965 27608 ft 487 kts 212°
2026-05-05 14:20 27.35582 120.34910 27592 ft 487 kts 212°
2026-05-05 14:20 27.32693 120.32864 27596 ft 486 kts 212°
2026-05-05 14:20 27.29854 120.30856 27610 ft 487 kts 212°
2026-05-05 14:21 27.27157 120.28949 27597 ft 487 kts 212°
2026-05-05 14:21 27.24176 120.26842 27593 ft 487 kts 212°
2026-05-05 14:21 27.21330 120.24832 27607 ft 486 kts 212°
2026-05-05 14:21 27.18454 120.22802 27601 ft 487 kts 212°
2026-05-05 14:22 27.15559 120.20760 27591 ft 487 kts 212°
2026-05-05 14:22 27.12687 120.18735 27602 ft 486 kts 212°
2026-05-05 14:22 27.09796 120.16678 27606 ft 487 kts 212°
2026-05-05 14:22 27.06930 120.14640 27591 ft 487 kts 212°
2026-05-05 14:23 27.04076 120.12611 27597 ft 486 kts 212°
2026-05-05 14:23 27.01185 120.10558 27609 ft 487 kts 212°
2026-05-05 14:23 26.98322 120.08526 27594 ft 487 kts 212°
2026-05-05 14:23 26.95451 120.06489 27594 ft 486 kts 212°
2026-05-05 14:24 26.92578 120.04452 27608 ft 486 kts 212°
2026-05-05 14:24 26.89783 120.02473 27599 ft 487 kts 212°
2026-05-05 14:24 26.86799 120.00359 27591 ft 487 kts 212°
2026-05-05 14:24 26.83907 119.98315 27604 ft 486 kts 212°
2026-05-05 14:25 26.81049 119.96297 27604 ft 487 kts 212°
2026-05-05 14:25 26.78152 119.94253 27591 ft 487 kts 212°
2026-05-05 14:25 26.75287 119.92232 27600 ft 486 kts 212°
2026-05-05 14:25 26.72393 119.90192 27608 ft 487 kts 212°
2026-05-05 14:26 26.69523 119.88170 27592 ft 487 kts 212°
2026-05-05 14:26 26.66681 119.86169 27596 ft 486 kts 212°
2026-05-05 14:26 26.63806 119.84146 27610 ft 487 kts 212°
2026-05-05 14:26 26.60928 119.82124 27596 ft 487 kts 212°
2026-05-05 14:27 26.58056 119.80105 27592 ft 487 kts 212°
2026-05-05 14:27 26.55192 119.78093 27607 ft 486 kts 212°
2026-05-05 14:27 26.52325 119.76081 27601 ft 487 kts 212°
2026-05-05 14:27 26.49471 119.74079 27591 ft 487 kts 212°
2026-05-05 14:28 26.46603 119.72068 27602 ft 486 kts 212°
2026-05-05 14:28 26.43698 119.70029 27607 ft 487 kts 212°
2026-05-05 14:28 26.40827 119.68016 27592 ft 487 kts 212°
2026-05-05 14:28 26.37958 119.66006 27597 ft 486 kts 212°
2026-05-05 14:29 26.35113 119.64013 27610 ft 487 kts 212°
2026-05-05 14:29 26.32240 119.62002 27595 ft 487 kts 212°
2026-05-05 14:29 26.29368 119.59993 27594 ft 486 kts 212°
2026-05-05 14:29 26.26494 119.57983 27608 ft 486 kts 212°
2026-05-05 14:30 26.23621 119.55976 27600 ft 487 kts 212°
2026-05-05 14:30 26.20622 119.54250 27573 ft 486 kts 201°
2026-05-05 14:30 26.17366 119.53185 27605 ft 486 kts 196°
2026-05-05 14:30 26.14101 119.52119 27612 ft 487 kts 197°
2026-05-05 14:31 26.10840 119.51022 27595 ft 487 kts 197°
2026-05-05 14:31 26.07578 119.49915 27594 ft 487 kts 197°
2026-05-05 14:31 26.04360 119.48820 27608 ft 486 kts 197°
2026-05-05 14:31 26.01106 119.47712 27600 ft 487 kts 197°
2026-05-05 14:32 25.97856 119.46606 27591 ft 487 kts 197°
2026-05-05 14:32 25.94615 119.45503 27603 ft 486 kts 197°
2026-05-05 14:32 25.91365 119.44398 27605 ft 487 kts 197°
2026-05-05 14:32 25.88149 119.43306 27591 ft 487 kts 197°
2026-05-05 14:33 25.84883 119.42197 27598 ft 486 kts 197°
2026-05-05 14:33 25.81641 119.41097 27609 ft 487 kts 197°
2026-05-05 14:33 25.78385 119.39992 27593 ft 487 kts 197°
2026-05-05 14:33 25.75186 119.38778 27588 ft 486 kts 204°
2026-05-05 14:34 25.72308 119.36798 27581 ft 486 kts 219°
2026-05-05 14:34 25.69976 119.34087 27603 ft 486 kts 230°
2026-05-05 14:34 25.67762 119.31258 27614 ft 487 kts 227°
2026-05-05 14:34 25.65428 119.28457 27586 ft 487 kts 227°
2026-05-05 14:35 25.63201 119.25823 27599 ft 486 kts 227°
2026-05-05 14:35 25.60808 119.23008 27608 ft 487 kts 226°
2026-05-05 14:35 25.58477 119.20271 27600 ft 487 kts 226°
2026-05-05 14:35 25.56133 119.17522 27594 ft 487 kts 226°
2026-05-05 14:36 25.53809 119.14799 27605 ft 486 kts 226°
2026-05-05 14:36 25.51482 119.12074 27600 ft 482 kts 226°
2026-05-05 14:36 25.49258 119.09470 27280 ft 459 kts 226°
2026-05-05 14:36 25.47079 119.06921 26188 ft 456 kts 226°
2026-05-05 14:37 25.44921 119.04399 25773 ft 443 kts 226°
2026-05-05 14:37 25.42801 119.01923 25135 ft 441 kts 226°
2026-05-05 14:37 25.40705 118.99475 24730 ft 433 kts 226°
2026-05-05 14:37 25.38640 118.97065 24075 ft 432 kts 226°
2026-05-05 14:38 25.36585 118.94667 23617 ft 426 kts 226°
2026-05-05 14:38 25.34582 118.92332 22975 ft 424 kts 226°
2026-05-05 14:38 25.32593 118.89942 22500 ft 418 kts 228°
2026-05-05 14:38 25.30645 118.87582 21895 ft 415 kts 228°
2026-05-05 14:39 25.28709 118.85237 21418 ft 409 kts 227°
2026-05-05 14:39 25.26807 118.82936 20884 ft 404 kts 227°
2026-05-05 14:39 25.24927 118.80662 20413 ft 399 kts 227°
2026-05-05 14:39 25.23068 118.78416 19922 ft 393 kts 227°
2026-05-05 14:40 25.21236 118.76202 19460 ft 387 kts 227°
2026-05-05 14:40 25.19412 118.74000 18992 ft 382 kts 227°
2026-05-05 14:40 25.17635 118.71854 18544 ft 376 kts 227°
2026-05-05 14:40 25.15888 118.69746 18105 ft 370 kts 227°
2026-05-05 14:41 25.14158 118.67660 17600 ft 367 kts 227°
2026-05-05 14:41 25.12453 118.65605 17103 ft 363 kts 227°
2026-05-05 14:41 25.10734 118.63535 16604 ft 360 kts 227°
2026-05-05 14:41 25.09060 118.61527 16111 ft 357 kts 227°
2026-05-05 14:42 25.07350 118.59562 15621 ft 354 kts 226°
2026-05-05 14:42 25.05643 118.57597 15128 ft 351 kts 226°
2026-05-05 14:42 25.03973 118.55676 14639 ft 348 kts 226°
2026-05-05 14:42 25.02314 118.53768 14372 ft 338 kts 226°
2026-05-05 14:43 25.00713 118.51928 14391 ft 322 kts 226°
2026-05-05 14:43 24.99193 118.50182 14364 ft 308 kts 226°
2026-05-05 14:43 24.97754 118.48528 14251 ft 298 kts 226°
2026-05-05 14:43 24.96449 118.46800 14077 ft 290 kts 242°
2026-05-05 14:44 24.95897 118.44727 13960 ft 279 kts 269°
2026-05-05 14:44 24.96206 118.42623 13541 ft 281 kts 294°
2026-05-05 14:44 24.97209 118.40800 13128 ft 278 kts 304°
2026-05-05 14:44 24.98314 118.39040 12711 ft 281 kts 305°
2026-05-05 14:45 24.99448 118.37289 12301 ft 283 kts 306°
2026-05-05 14:45 25.00315 118.35346 11895 ft 284 kts 286°
2026-05-05 14:45 25.00847 118.33254 11526 ft 284 kts 286°
2026-05-05 14:45 25.01378 118.31232 11172 ft 285 kts 286°
2026-05-05 14:46 25.01914 118.29194 10832 ft 284 kts 286°
2026-05-05 14:46 25.02454 118.27113 10499 ft 283 kts 283°
2026-05-05 14:46 25.02546 118.24963 10186 ft 280 kts 265°
2026-05-05 14:46 25.02403 118.22817 9888 ft 279 kts 266°
2026-05-05 14:47 25.02205 118.20705 9555 ft 277 kts 255°
2026-05-05 14:47 25.01330 118.18850 9261 ft 274 kts 228°
2026-05-05 14:47 24.99791 118.17653 8931 ft 273 kts 201°
2026-05-05 14:47 24.97926 118.17362 8560 ft 274 kts 173°
2026-05-05 14:48 24.96062 118.17808 8228 ft 273 kts 166°
2026-05-05 14:48 24.94218 118.18294 7913 ft 272 kts 166°
2026-05-05 14:48 24.92371 118.18789 7610 ft 271 kts 166°
2026-05-05 14:48 24.90519 118.19288 7318 ft 270 kts 166°
2026-05-05 14:49 24.88692 118.19779 7039 ft 268 kts 166°
2026-05-05 14:49 24.86879 118.20267 6767 ft 266 kts 166°
2026-05-05 14:49 24.85082 118.20751 6502 ft 265 kts 166°
2026-05-05 14:49 24.83299 118.21232 6242 ft 263 kts 166°
2026-05-05 14:50 24.81519 118.21710 5985 ft 261 kts 166°
2026-05-05 14:50 24.79753 118.22186 5729 ft 259 kts 166°
2026-05-05 14:50 24.78008 118.22655 5523 ft 255 kts 166°
2026-05-05 14:50 24.76316 118.23114 5457 ft 245 kts 163°
2026-05-05 14:51 24.74840 118.23982 5306 ft 239 kts 141°
2026-05-05 14:51 24.73533 118.25108 5049 ft 239 kts 142°
2026-05-05 14:51 24.72153 118.26121 4769 ft 239 kts 160°
2026-05-05 14:51 24.70585 118.26696 4490 ft 236 kts 150°
2026-05-05 14:52 24.69428 118.27916 4190 ft 229 kts 124°
2026-05-05 14:52 24.68348 118.29127 3871 ft 224 kts 150°
2026-05-05 14:52 24.66848 118.29524 3511 ft 221 kts 186°
2026-05-05 14:52 24.65491 118.28839 3127 ft 219 kts 228°
2026-05-05 14:53 24.64728 118.27454 2963 ft 207 kts 243°
2026-05-05 14:53 24.64055 118.26105 2795 ft 199 kts 232°
2026-05-05 14:53 24.63193 118.24970 2575 ft 186 kts 229°
2026-05-05 14:53 24.62419 118.23909 2427 ft 166 kts 232°
2026-05-05 14:54 24.61740 118.22950 2149 ft 151 kts 232°
2026-05-05 14:54 24.61097 118.22057 1925 ft 147 kts 232°
2026-05-05 14:54 24.60463 118.21174 1729 ft 146 kts 232°
2026-05-05 14:54 24.59835 118.20298 1536 ft 145 kts 232°
2026-05-05 14:55 24.59213 118.19431 1343 ft 145 kts 232°
2026-05-05 14:55 24.58583 118.18552 1145 ft 145 kts 232°
2026-05-05 14:55 24.57961 118.17685 950 ft 144 kts 232°
2026-05-05 14:55 24.57340 118.16820 755 ft 144 kts 232°
2026-05-05 14:56 24.56714 118.15949 560 ft 144 kts 232°
2026-05-05 14:56 24.56093 118.15088 371 ft 143 kts 231°
2026-05-05 14:56 24.55468 118.14236 168 ft 143 kts 231°
2026-05-05 14:56 24.54867 118.13398 73 ft 124 kts 232°
2026-05-05 14:57 24.54443 118.12803 72 ft 72 kts 231°